Regional Weather Roundup
Issued by NWS San Angelo, TX

Home | Current Version | Previous Version | Text Only | Print | Product List | Glossary On
Versions: 1 2 3 4 5 6 7 8 9 10 11 12 13 14 15 16 17 18 19 20 21 22 23 24 25 26 27 28 29 30 31 32 33 34 35 36 37 38 39 40 41 42 43 44 45 46 47 48 49 50
000
ASUS44 KSJT 231710
RWRSJT
WEST CENTRAL TEXAS REGIONAL WEATHER ROUNDUP
NATIONAL WEATHER SERVICE SAN ANGELO TX
1200 PM CDT SAT MAY 23 2015

NOTE: "FAIR" INDICATES FEW OR NO CLOUDS BELOW 12,000 FEET WITH NO
SIGNIFICANT WEATHER AND/OR OBSTRUCTIONS TO VISIBILITY.

TXZ049-054-064>066-071>073-076>078-098-099-113-114-127-128-139-140-
154-155-168>170-231800
...LOCATIONS ACROSS WEST CENTRAL TEXAS...

CITY           SKY/WX    TMP DP  RH WIND       PRES   REMARKS
SAN ANGELO     CLOUDY    77  68  73 S17G26    30.01F
ABILENE        CLOUDY    77  68  73 S22G31    30.00F
DYESS AFB      NOT AVBL
JUNCTION       CLOUDY    77  69  76 S12       30.04F
SWEETWATER     CLOUDY    76  67  72 S28G35    30.03R
BROWNWOOD      CLOUDY    75  70  83 S15       30.04F
COLEMAN        CLOUDY    76  70  81 S16       30.03F
SONORA         CLOUDY    73  70  88 S12G21    30.10R
OZONA          PTSUNNY   77  68  73 S23G35    30.07S
BRADY          MOSUNNY   75  70  83 SE20      30.04S
$$

TEXAS PANHANDLE/OKLAHOMA PANHANDLE

CITY           SKY/WX    TMP DP  RH WIND       PRES   REMARKS
AMARILLO       CLOUDY    58  57  97 E14       30.00F
BORGER         CLOUDY    58  56  93 SE7       30.01S
CANADIAN       CLOUDY    60  58  92 E14G20    29.98F
DALHART        CLOUDY    60  55  83 SE10      29.99F
DUMAS          CLOUDY    60  56  89 E10       30.00S
GUYMON         NOT AVBL
HEREFORD       PTSUNNY   65  62  91 MISG      30.00S
PAMPA          CLOUDY    56  55  94 NE16      30.00F
PERRYTON       CLOUDY    57  55  94 E13       29.98S
$$

SOUTHERN PANHANDLE/SOUTH PLAINS/ROLLING PLAINS

CITY           SKY/WX    TMP DP  RH WIND       PRES   REMARKS
LUBBOCK        CLOUDY    73  64  73 S23G35    29.97F
SNYDER         CLOUDY    77  67  70 S25G35    29.99S
CHILDRESS      CLOUDY    73  69  87 S18G28    29.95F
SEMINOLE       CLOUDY    72  63  72 S15       30.00S
$$

PERMIAN BASIN

CITY           SKY/WX    TMP DP  RH WIND       PRES   REMARKS
MIDLAND        CLOUDY    77  63  61 S14G24    29.97F
ODESSA         CLOUDY    76  62  62 S16       29.98F
WINK           PTSUNNY   80  57  45 S12       29.93F
$$

FAR WEST/SOUTHWEST MOUNTAINS/TRANS PECOS

CITY           SKY/WX    TMP DP  RH WIND       PRES   REMARKS
ALPINE         MOSUNNY   78  47  33 S23G32    30.10F
DRYDEN           N/A     81  66  60 S9        29.99F
EL PASO        MOSUNNY   75  25  15 W14G26    30.01F
FORT STOCKTON  CLOUDY    78  55  44 S16       29.97F
GUADALUPE PASS SUNNY     73  33  23 SW15G35   30.08S
MARFA          MOSUNNY   77  48  36 S24G35    30.09F
PECOS          CLOUDY    80  57  45 CALM      29.93F
$$

DALLAS/FORT WORTH METROPLEX

CITY           SKY/WX    TMP DP  RH WIND       PRES   REMARKS
DFW AIRPORT    CLOUDY    71  71 100 SE10      30.07F FOG
FTW MEACHAM    CLOUDY    75  72  90 SE15      30.06F
DAL-EXECUTIVE  CLOUDY    73  70  90 SE14G21   30.08F FOG
GRAND PRAIRIE  PTSUNNY   73  73 100 SE9G17    30.09F
ADDISON        RAIN      73  70  88 SE15      30.12R
MESQUITE       CLOUDY    73  70  88 SE16      30.12S FOG
LANCASTER      LGT RAIN  73  69  87 SE12G18   30.10F
$$

NORTH CENTRAL TEXAS

CITY           SKY/WX    TMP DP  RH WIND       PRES   REMARKS
SHRMAN/DENISON CLOUDY    72  70  95 SE14      30.10F
GAINESVILLE    CLOUDY    71  69  92 SE12G22   30.10S FOG
BRIDGEPORT     CLOUDY    73  73 100 SE9G16    30.07F
DENTON         LGT RAIN  72  71  97 SE13      30.07F FOG
WAXAHACHIE     CLOUDY    73  73  99 SE12      30.10F FOG
GRANBURY       DRIZZLE   77  71  83 SE13G18   30.07S
$$

WESTERN NORTH TEXAS

CITY           SKY/WX    TMP DP  RH WIND       PRES   REMARKS
WICHITA FALLS  CLOUDY    74  70  87 SE18G29   29.99F
VERNON         CLOUDY    76  68  75 S22G35    29.97F
BRECKENRIDGE   LGT RAIN  76  68  75 SE16      30.02F
COMANCHE       CLOUDY    74  74 100 S15       30.06S
$$

CENTRAL AND SOUTH CENTRAL TEXAS

CITY           SKY/WX    TMP DP  RH WIND       PRES   REMARKS
AUSTIN/BERGSTM PTSUNNY   82  72  71 S20G26    30.06F
WACO           CLOUDY    76  72  87 S14       30.08F
HILLSBORO      LGT RAIN  75  70  84 SE16      30.08F
TEMPLE         CLOUDY    79  70  73 SE15      30.07F
KILLEEN-GRAY   CLOUDY    77  73  87 S16       30.07S
FORT HOOD      CLOUDY    77  73  87 SE15G21   30.07F
GEORGETOWN     PTSUNNY   81  73  78 S13       30.06F
LAGO VISTA     CLOUDY    79  73  81 S9G20     30.09F
SAN MARCOS     PTSUNNY   84  72  65 SE20G25   30.07F
NEW BRAUNFELS  PTSUNNY   85  72  65 S17       30.06S
RANDOLPH AFB   NOT AVBL
SAN ANTONIO    PTSUNNY   83  72  69 SE21G26   30.06F
STINSON        PTSUNNY   84  73  69 SE15      30.04F
PLEASANTON     NOT AVBL
LA GRANGE      PTSUNNY   84  74  71 SE12      30.07F
GIDDINGS       PTSUNNY   82  71  68 S10G17    30.12F
$$

EAST TEXAS

CITY           SKY/WX    TMP DP  RH WIND       PRES   REMARKS
PARIS          CLOUDY    72  63  73 SE13      30.15F
CLARKSVILLE    NOT AVBL
TYLER          CLOUDY    80  70  71 SE12      30.14F
LONGVIEW       PTSUNNY   80  70  71 SE12G20   30.15F
PALESTINE      CLOUDY    78  72  81 SE10      30.15S
NACOGDOCHES    CLOUDY    81  72  74 SE8       30.16F
$$

TEXAS HILL COUNTRY AND EDWARDS PLATEAU

CITY           SKY/WX    TMP DP  RH WIND       PRES   REMARKS
LLANO          CLOUDY    79  72  78 S8        30.09F
HORSESHOE BAY  PTSUNNY   79  71  78 S7        30.07S
KERRVILLE      CLOUDY    76  71  83 SE16G23   30.07F THUNDER
FREDERICKSBRG  CLOUDY    77  68  74 S15G22    30.08F
ROCKSPRINGS    CLOUDY    73  70  88 S16G22    30.09F FOG
HONDO          CLOUDY    80  72  76 S18       30.06F
UVALDE         CLOUDY    77  72  84 SE9       30.05F
DEL RIO        CLOUDY    78  72  81 SE14G23   29.99F
$$

SOUTHEAST TEXAS

CITY           SKY/WX    TMP DP  RH WIND       PRES   REMARKS
COLLEGE STN    PTSUNNY   85  71  63 S17G23    30.09F
CALDWELL       PTSUNNY   82  72  69 MISG      30.12S
CROCKETT       NOT AVBL
BRENHAM        PTSUNNY   84  72  65 SE13G20   30.11F
HUNTSVILLE     PTSUNNY   82  71  69 VRB7      30.13F
CONROE         LGT RAIN  81  72  74 SE9       30.13F
HOUSTON BUSH   PTSUNNY   76  70  82 E9        30.12S
HOUSTON HOBBY  PTSUNNY   84  72  67 S10       30.11F
PERLAND        PTSUNNY   86  72  62 SE13G22   30.14S
WHARTON        MOSUNNY   85  72  65 SE18      30.11S
$$

THE UPPER TEXAS COAST

CITY           SKY/WX    TMP DP  RH WIND       PRES   REMARKS
ORANGE         MOSUNNY   85  66  52 S10G16    30.17S
PORT ARTHUR    PTSUNNY   86  72  62 SE16      30.14F
GALVESTON      MOSUNNY   84  77  79 SE13      30.15R
ANGLETON       MOSUNNY   83  73  72 S17       30.12S
BAY CITY       PTSUNNY   83  75  78 S13       30.11F
$$

TEXAS COASTAL BEND, RIO GRANDE PLAINS DEEP SOUTH TEXAS

CITY           SKY/WX    TMP DP  RH WIND       PRES   REMARKS
VICTORIA       LGT RAIN  76  74  93 SE8       30.09S
BEEVILLE       CLOUDY    78  78 100 CALM      30.06S THUNDER
ROCKPORT       MOSUNNY   85  75  72 SE14G23   30.06F
PORT ARANSAS   MOSUNNY   83  76  79 SE18G24   30.07S
PORT LAVACA    CLOUDY    80  76  87 SE9G16    30.09F
CORPUS CHRISTI PTSUNNY   85  74  69 S21G30    30.05F
KINGSVILLE NAS PTSUNNY   87  78  74 SE18G25   30.04F
COTULLA        PTSUNNY   85  73  67 SE13G24   30.01F
LAREDO         PTSUNNY   87  72  61 SE24G30   30.01F
BROWNSVILLE    CLOUDY    85  74  69 SE22G29   30.06F
PORT ISABEL    PTSUNNY   88  76  67 SE21G30   30.05S
HEBBRONVILLE     N/A     84  72  68 SE16      30.05F
MCALLEN        PTSUNNY   86  76  71 SE10      30.03F
WESLACO        CLOUDY    84  74  73 SE17G24   30.03F
FALFURRIAS     PTSUNNY   87  73  63 S16       30.03F
EDINBURG       TSTM      79  74  83 SE18      30.04S
$$


USA.gov is the U.S. government's official web portal to all federal, state and local government web resources and services.